CW4745 Weather Reports


Display with metric or nautical units.
time (UTC)temp
F
wind
direction
speed
MPH
gust
MPH
rain 1hr
in
rain 24hr
in
rain mn
in
humidity
%
barometer
mb
20180225135246 34 43 9.0 16.0 0.00 0.00 0.00 48 1031.1
20180225134248 34 71 6.0 19.0 0.00 0.00 0.00 48 1031.2
20180225133249 34 40 9.0 19.0 0.00 0.00 0.00 47 1031.2
20180225132246 35 9 9.0 17.0 0.00 0.00 0.00 47 1031.5
20180225131246 34 37 9.0 16.0 0.00 0.00 0.00 47 1031.4
20180225130247 34 49 10.0 19.0 0.00 0.00 0.00 46 1031.5
20180225125241 34 43 11.0 19.0 0.00 0.00 0.00 47 1031.7
20180225124241 33 92 9.0 18.0 0.00 0.00 0.00 47 1031.5
20180225123241 33 9 8.0 19.0 0.00 0.00 0.00 48 1031.6
20180225122245 33 91 9.0 18.0 0.00 0.00 0.00 46 1031.5
20180225121246 33 105 9.0 15.0 0.00 0.00 0.00 47 1031.6
20180225120245 33 70 6.0 14.0 0.00 0.00 0.00 48 1031.7
20180225115455 33 40 9.0 13.0 0.00 0.00 0.00 49 1031.7
20180225115042 33 70 7.0 20.0 0.00 0.00 0.00 50 1031.8
20180225114041 34 77 10.0 23.0 0.00 0.00 0.00 49 1031.8
20180225113042 33 88 7.0 17.0 0.00 0.00 0.00 51 1031.8
20180225112041 33 67 10.0 19.0 0.00 0.00 0.00 49 1031.8
20180225111034 32 81 12.0 17.0 0.00 0.00 0.00 52 1031.9
20180225110034 31 73 9.0 17.0 0.00 0.00 0.00 53 1032.0
20180225105035 31 40 11.0 17.0 0.00 0.00 0.00 53 1032.1
20180225104040 32 85 9.0 19.0 0.00 0.00 0.00 53 1032.0
20180225103034 32 109 9.0 20.0 0.00 0.00 0.00 54 1031.9
20180225102033 31 64 11.0 21.0 0.00 0.00 0.00 56 1032.1
20180225101034 31 68 10.0 18.0 0.00 0.00 0.00 57 1032.1
20180225100031 31 64 10.0 23.0 0.00 0.00 0.00 56 1032.1
20180225095032 30 85 13.0 19.0 0.00 0.00 0.00 57 1032.1
20180225094032 31 68 9.0 17.0 0.00 0.00 0.00 59 1032.1
20180225093031 31 80 8.0 18.0 0.00 0.00 0.00 61 1032.2
20180225092036 30 81 6.0 17.0 0.00 0.00 0.00 61 1032.3
20180225091036 29 92 7.0 16.0 0.00 0.00 0.00 63 1032.2
20180225090031 29 71 8.0 14.0 0.00 0.00 0.00 64 1032.0
20180225085038 29 101 11.0 19.0 0.00 0.00 0.00 64 1032.1
20180225084035 28 94 8.0 17.0 0.00 0.00 0.00 66 1032.0
20180225083036 28 71 10.0 17.0 0.00 0.00 0.00 67 1032.1
20180225082037 28 94 11.0 18.0 0.00 0.00 0.00 67 1032.1
20180225081047 27 73 10.0 16.0 0.00 0.00 0.00 69 1031.9
20180225080039 27 85 9.0 16.0 0.00 0.00 0.00 70 1031.7
20180225075035 26 78 10.0 20.0 0.00 0.00 0.00 70 1031.6
20180225074034 26 75 9.0 18.0 0.00 0.00 0.00 71 1031.5
20180225073036 26 84 9.0 17.0 0.00 0.00 0.00 72 1031.6
20180225072034 25 67 7.0 16.0 0.00 0.00 0.00 72 1031.6
20180225071034 25 66 6.0 16.0 0.00 0.00 0.00 72 1031.4
20180225070033 25 61 8.0 17.0 0.00 0.00 0.00 72 1031.5
20180225065038 25 67 7.0 15.0 0.00 0.00 0.00 73 1031.4
20180225064033 25 71 7.0 13.0 0.00 0.00 0.00 72 1031.3
20180225063033 25 81 7.0 16.0 0.00 0.00 0.00 72 1031.1
20180225062033 25 58 8.0 15.0 0.00 0.00 0.00 72 1031.0
20180225061031 25 57 8.0 17.0 0.00 0.00 0.00 72 1031.0
20180225060032 25 70 7.0 13.0 0.00 0.00 0.00 72 1030.8
20180225055032 26 61 7.0 14.0 0.00 0.00 0.00 71 1030.8
20180225054032 26 71 9.0 15.0 0.00 0.00 0.00 71 1030.7
20180225053032 26 99 8.0 16.0 0.00 0.00 0.00 71 1030.6
20180225052031 26 70 7.0 17.0 0.00 0.00 0.00 71 1030.7
20180225051031 26 78 7.0 15.0 0.00 0.00 0.00 71 1030.6
20180225050031 26 39 7.0 17.0 0.00 0.00 0.00 70 1030.5
20180225045029 26 92 9.0 18.0 0.00 0.00 0.00 70 1030.5
20180225044030 26 81 7.0 17.0 0.00 0.00 0.00 70 1030.3
20180225043022 26 57 7.0 15.0 0.00 0.00 0.00 70 1030.1
20180225042026 26 81 7.0 17.0 0.00 0.00 0.00 70 1030.4
20180225041021 26 77 8.0 16.0 0.00 0.00 0.00 70 1030.2
20180225040021 26 87 8.0 15.0 0.00 0.00 0.00 70 1030.2
20180225035022 27 112 9.0 16.0 0.00 0.00 0.00 70 1030.2
20180225034020 27 74 9.0 20.0 0.00 0.00 0.00 70 1030.1
20180225033020 27 77 7.0 15.0 0.00 0.00 0.00 70 1030.1
20180225032020 27 46 8.0 18.0 0.00 0.00 0.00 70 1030.2
20180225031020 27 74 6.0 16.0 0.00 0.00 0.00 70 1030.2
20180225030019 27 60 7.0 19.0 0.00 0.00 0.00 70 1030.0
20180225025019 27 61 9.0 19.0 0.00 0.00 0.00 70 1030.2
20180225024019 27 71 7.0 13.0 0.00 0.00 0.00 70 1030.3
20180225023020 27 47 6.0 13.0 0.00 0.00 0.00 69 1030.1
20180225022020 28 67 5.0 12.0 0.00 0.00 0.00 68 1030.0
20180225021024 28 80 6.0 15.0 0.00 0.00 0.00 68 1030.2
20180225020031 28 54 7.0 14.0 0.00 0.00 0.00 68 1030.0
20180225015023 28 71 8.0 17.0 0.00 0.00 0.00 68 1030.0
20180225014024 28 92 10.0 17.0 0.00 0.00 0.00 69 1029.9
20180225013024 28 102 8.0 14.0 0.00 0.00 0.00 69 1029.8
20180225012025 28 92 8.0 16.0 0.00 0.00 0.00 68 1029.9
20180225011024 29 80 8.0 19.0 0.00 0.00 0.00 68 1029.7
20180225010031 29 71 11.0 19.0 0.00 0.00 0.00 68 1029.8
20180225005023 29 88 9.0 18.0 0.00 0.00 0.00 68 1029.7
20180225004024 29 66 8.0 17.0 0.00 0.00 0.00 68 1029.7
20180225003024 29 81 10.0 18.0 0.00 0.00 0.00 68 1029.8
20180225002024 29 85 9.0 20.0 0.00 0.00 0.00 68 1029.7
20180225001024 29 81 8.0 19.0 0.00 0.00 0.00 68 1029.7
20180225000028 29 71 7.0 16.0 0.00 0.00 0.00 68 1029.8
20180224235023 29 73 10.0 15.0 0.00 0.00 0.00 67 1029.7
20180224234024 30 51 8.0 18.0 0.00 0.00 0.00 67 1029.6
20180224233021 30 56 10.0 17.0 0.00 0.00 0.00 67 1029.6
20180224232023 30 97 9.0 18.0 0.00 0.00 0.00 67 1029.6
20180224231023 30 73 8.0 18.0 0.00 0.00 0.00 67 1029.7
20180224230016 30 94 8.0 17.0 0.00 0.00 0.00 68 1029.7
20180224225020 30 73 7.0 16.0 0.00 0.00 0.00 68 1029.7
20180224224020 30 46 9.0 20.0 0.00 0.00 0.00 68 1029.6
20180224223021 31 82 6.0 15.0 0.00 0.00 0.00 67 1029.8
20180224222021 31 56 7.0 18.0 0.00 0.00 0.00 67 1029.8
20180224221020 31 74 10.0 17.0 0.00 0.00 0.00 66 1029.5
20180224220021 31 87 10.0 18.0 0.00 0.00 0.00 66 1029.3
20180224215024 31 75 9.0 17.0 0.00 0.00 0.00 66 1029.3
20180224214020 31 112 9.0 15.0 0.00 0.00 0.00 67 1029.3
20180224213021 31 66 6.0 16.0 0.00 0.00 0.00 67 1029.3
20180224212031 31 70 9.0 17.0 0.00 0.00 0.00 67 1029.3
20180224211019 31 46 5.0 15.0 0.00 0.00 0.00 67 1029.2
20180224210018 32 27 9.0 15.0 0.00 0.00 0.00 66 1029.1
20180224205014 32 77 8.0 18.0 0.00 0.00 0.00 67 1029.0
20180224204013 32 80 10.0 17.0 0.00 0.00 0.00 67 1028.8
20180224203022 32 60 10.0 17.0 0.00 0.00 0.00 69 1028.8
20180224202026 32 71 6.0 13.0 0.00 0.00 0.00 70 1028.7
20180224201013 32 67 6.0 14.0 0.00 0.00 0.00 70 1028.7
20180224200015 32 36 8.0 14.0 0.00 0.00 0.00 70 1028.6
20180224195014 32 74 6.0 15.0 0.00 0.00 0.00 71 1028.6
20180224194018 32 44 5.0 12.0 0.00 0.00 0.00 72 1028.5
20180224193016 32 81 5.0 13.0 0.00 0.00 0.00 73 1028.5
20180224192014 32 74 5.0 13.0 0.00 0.00 0.00 72 1028.3
20180224191021 33 54 6.0 13.0 0.00 0.00 0.00 71 1028.4
20180224190016 32 27 6.0 12.0 0.00 0.00 0.00 71 1028.4
20180224185013 33 60 6.0 11.0 0.00 0.00 0.00 72 1028.3
20180224184012 33 70 4.0 13.0 0.00 0.00 0.00 71 1028.3
20180224183016 33 29 6.0 13.0 0.00 0.00 0.00 72 1028.3
20180224182014 33 104 6.0 12.0 0.00 0.00 0.00 72 1028.3
20180224181020 33 67 6.0 12.0 0.00 0.00 0.00 72 1028.2
20180224180019 33 85 4.0 12.0 0.00 0.00 0.00 72 1028.1
20180224175012 33 91 5.0 12.0 0.00 0.00 0.00 72 1027.9
20180224174013 33 80 4.0 13.0 0.00 0.00 0.00 71 1027.9
20180224173023 34 91 7.0 14.0 0.00 0.00 0.00 70 1027.7
20180224172018 34 64 7.0 14.0 0.00 0.00 0.00 70 1027.8
20180224171017 34 81 10.0 17.0 0.00 0.00 0.00 69 1027.7
20180224170019 35 66 9.0 18.0 0.00 0.00 0.00 69 1027.6
20180224165016 35 44 8.0 17.0 0.00 0.00 0.00 70 1027.5
20180224164017 35 60 9.0 18.0 0.00 0.00 0.00 70 1027.5
20180224163017 35 78 5.0 13.0 0.00 0.00 0.00 70 1027.3
20180224162009 35 78 6.0 15.0 0.00 0.00 0.00 70 1027.2
20180224161009 36 43 9.0 20.0 0.00 0.00 0.00 69 1027.2
20180224160014 36 61 11.0 19.0 0.00 0.00 0.00 68 1027.1
20180224155003 36 58 8.0 23.0 0.00 0.00 0.00 68 1027.2
20180224154008 36 60 9.0 20.0 0.00 0.00 0.00 68 1027.2
20180224153010 36 58 10.0 18.0 0.00 0.00 0.00 68 1027.2
20180224152008 36 73 12.0 20.0 0.00 0.00 0.00 67 1027.4
20180224151009 36 91 8.0 22.0 0.00 0.00 0.00 69 1027.3
20180224150003 36 63 10.0 16.0 0.00 0.00 0.00 69 1027.2
20180224145003 36 39 10.0 20.0 0.00 0.00 0.00 68 1027.3
20180224144009 36 71 8.0 19.0 0.00 0.00 0.00 69 1027.3
20180224143011 36 54 9.0 19.0 0.00 0.00 0.00 68 1027.4
20180224142008 36 71 13.0 24.0 0.00 0.00 0.00 67 1027.5
20180224141008 37 44 9.0 20.0 0.00 0.00 0.00 67 1027.4
20180224140007 37 60 9.0 20.0 0.00 0.00 0.00 67 1027.4